Regional Weather Roundup
Issued by NWS

Home | Current Version | Previous Version | Graphics & Text | Print | Product List | Glossary On
Versions: 1 2 3 4 5 6 7 8 9 10 11 12 13 14 15 16 17 18 19 20 21 22 23 24 25 26 27 28 29 30 31 32 33 34 35 36 37 38 39 40 41 42 43 44 45 46 47 48 49 50
652
ASUS45 KBOU 230807
RWRCO

WEATHER ROUNDUP FOR COLORADO
NATIONAL WEATHER SERVICE DENVER/BOULDER CO
200 AM MDT FRI JUN 23 2017

NOTE: "FAIR" INDICATES FEW OR NO CLOUDS BELOW 12000 FEET WITH NO
SIGNIFICANT WEATHER AND/OR OBSTRUCTIONS TO VISIBILITY.

COZ001>005-013-030-031-230900-
...NORTHWEST COLORADO...

CITY           SKY/WX    TMP DP  RH WIND       PRES   REMARKS
CRAIG          FAIR      54  33  45 W10       30.16R
HAYDEN         FAIR      54  25  32 SW6       30.16R
MEEKER         FAIR      51  46  83 MISG      30.16S
RABBIT EARS PA FAIR      45  27  49 W9        30.38F
STEAMBOAT SPGS FAIR      51  38  60 SE9       30.16S
WALDEN         FAIR      46  37  71 NW8       30.25S
$$

COZ006>008-011-230900-
...WEST CENTRAL VALLEYS...

CITY           SKY/WX    TMP DP  RH WIND       PRES   REMARKS
GRAND JUNCTION FAIR      77  28  16 N15       29.99S
MONTROSE       FAIR      62  39  42 S7        30.06R
EAGLE          FAIR      55  39  54 CALM      30.17F
RIFLE          FAIR      60  41  49 E5        30.07S
DELTA          FAIR      70  36  29 NE7       30.00R
NUCLA          FAIR      64  32  29 SE10      30.10S
$$

COZ017>023-064>068-230900-
...SOUTHWEST COLORADO...

CITY           SKY/WX    TMP DP  RH WIND       PRES   REMARKS
DURANGO        FAIR      59  27  29 CALM      30.08S
CORTEZ         FAIR      59  34  39 SE6       30.06R
PAGOSA SPRINGS FAIR      57  26  29 CALM      30.16F
TELLURIDE      FAIR      57  31  36 SE6       30.33S
WOLF CREEK PAS FAIR      54  27  35 NW7       30.55F
$$

COZ009-010-012-014-032>034-037-058>063-230900-
...CENTRAL COLORADO...

CITY           SKY/WX    TMP DP  RH WIND       PRES   REMARKS
ASPEN          FAIR      50  37  61 S3        30.22S
BUENA VISTA    FAIR      57  33  41 W8        30.24S
COPPER MTN     FAIR      48  28  46 W14       30.51F
BERTHOUD PASS  FAIR      41  28  60 W20G31    30.52F
COTTONWOOD PAS FAIR      59  32  36 SW8       30.37S
GUNNISON       FAIR      50  36  58 CALM      30.20S
KREMMLING      NOT AVBL
LEADVILLE      FAIR      41  31  67 NE3       30.36S
MONARCH PASS   FAIR      46  37  71 E5        30.61S
SALIDA         FAIR      62  42  48 W3        30.27S
SUNLIGHT       FAIR      52  27  37 NW5       30.45F
WILKERSON PASS FAIR      48  34  57 SW5       30.49F
$$

COZ069>075-230900-
...SAN LUIS VALLEY/SANGRE DE CRISTO MOUNTAINS...

CITY           SKY/WX    TMP DP  RH WIND       PRES   REMARKS
ALAMOSA        FAIR      54  45  71 SW9       30.15S
DEL NORTE      FAIR      58  29  32 CALM      30.19S
LA VETA PASS   FAIR      52  39  62 MISG      30.49S
SAGUACHE       FAIR      55  30  38 CALM      30.19S
$$

COZ035-036-038>040-230900-
...NORTHERN COLORADO FRONT RANGE...

CITY           SKY/WX    TMP DP  RH WIND       PRES   REMARKS
DENVER INTL AP FAIR      59  53  80 E9        30.09R
DMNS CITY PARK   N/A     62  53  73 NE16      30.10R
AURORA         PTCLDY    58  54  86 E5        30.11R
FRONT RANGE AP FAIR      59  55  88 E8        30.11R
ERIE MUNI ARPT CLOUDY    65  53  66 N6        30.11R
BOULDER MUN AP CLOUDY    64  54  68 N5        30.12R
CENTENNIAL     FAIR      61  54  77 NW7       30.11R
BROOMFIELD     MOCLDY    63  54  72 N10       30.13R
FORT COLLINS   CLOUDY    65  54  67 NE7       30.13R
LONGMONT       CLOUDY    67  56  66 NE5       30.13R
$$

COZ041-046-047-076>085-087-088-230900-
...PIKES PEAK/PALMER DIVIDE AND SOUTHERN FOOTHILLS...

CITY           SKY/WX    TMP DP  RH WIND       PRES   REMARKS
COLO. SPRINGS  FAIR      63  53  70 SE10      30.13R
A. F. ACADEMY  FAIR      58  49  70 NW3       30.15R
SCHRIEVER AFB  NOT AVBL
CHEYENNE MTN   NOT AVBL
ELLICOTT       FAIR     N/A N/A N/A SE10      30.12R
FALCON           N/A     56  53  88 SE10      30.18R
FORT CARSON    FAIR      59  50  71 NE3       30.09S
LIMON          MOCLDY    60  55  83 E7        30.10R
MONUMENT HILL  FAIR      54  50  87 S9        30.20R
CANON CITY     CLEAR     64  57  77 N7        30.06R
WALSENBURG     FAIR      55  46  71 W3        30.09F
TRINIDAD       FAIR      59  47  64 W10       30.08S
$$

COZ042>045-048>051-090-091-230900-
...NORTHEAST COLORADO...

CITY           SKY/WX    TMP DP  RH WIND       PRES   REMARKS
GREELEY ARPT   MOCLDY    65  55  70 NE7       30.11R
AKRON          MOCLDY    62  49  62 N7        30.11R THUNDER
BURLINGTON     FAIR      63  56  78 NE8       30.02F
WRAY           CLOUDY    63  46  55 SE7       30.03R
YUMA           CLOUDY    59  48  67 N3        30.06R
STERLING       MOCLDY    59  54  82 E10       30.04F
HOLYOKE        NOT AVBL
FORT MORGAN    CLOUDY    62  52  70 E5        30.09R
$$

COZ086-089-092>099-230900-
...SOUTHEAST COLORADO...

CITY           SKY/WX    TMP DP  RH WIND       PRES   REMARKS
PUEBLO         FAIR      66  52  60 NE9       30.01F
LA JUNTA       FAIR      63  56  78 N7        30.00R
LAMAR          FAIR      69  60  73 NE9       29.95R
SPRINGFIELD      N/A     65  60  84 NE8       29.97F
$$




USA.gov is the U.S. government's official web portal to all federal, state and local government web resources and services.